| time (UTC) | temp F | wind direction | speed MPH | gust MPH | rain 1hr in | rain 24hr in | rain mn in | humidity % | barometer mb |
| 20260503213752 | 55 | 305 | 2.0 | 4.0 | 0.00 | 0.00 | 0.00 | 69 | 1020.4 |
| 20260503213241 | 55 | 291 | 2.0 | 4.0 | 0.00 | 0.00 | 0.00 | 69 | 1020.5 |
| 20260503212736 | 55 | 304 | 2.0 | 4.0 | 0.00 | 0.00 | 0.00 | 69 | 1020.5 |
| 20260503212240 | 55 | 354 | 1.0 | 2.0 | 0.00 | 0.00 | 0.00 | 70 | 1020.4 |
| 20260503211739 | 54 | 354 | 1.0 | 3.0 | 0.00 | 0.00 | 0.00 | 72 | 1020.4 |
| 20260503210738 | 55 | 354 | 1.0 | 3.0 | 0.00 | 0.00 | 0.00 | 76 | 1020.4 |
| 20260503210240 | 55 | 345 | 1.0 | 3.0 | 0.00 | 0.00 | 0.00 | 76 | 1020.4 |
| 20260503205737 | 55 | 339 | 1.0 | 3.0 | 0.00 | 0.00 | 0.00 | 76 | 1020.3 |
| 20260503205524 | 55 | 330 | 2.0 | 3.0 | 0.00 | 0.00 | 0.00 | 75 | 1020.4 |
| 20260503204736 | 55 | 343 | 2.0 | 3.0 | 0.00 | 0.00 | 0.00 | 75 | 1020.3 |
| 20260503204236 | 55 | 326 | 2.0 | 3.0 | 0.00 | 0.00 | 0.00 | 74 | 1020.3 |
| 20260503203736 | 55 | 324 | 2.0 | 3.0 | 0.00 | 0.00 | 0.00 | 74 | 1020.3 |
| 20260503203238 | 55 | 324 | 2.0 | 3.0 | 0.00 | 0.00 | 0.00 | 74 | 1020.3 |
| 20260503202736 | 55 | 324 | 2.0 | 3.0 | 0.00 | 0.00 | 0.00 | 73 | 1020.3 |
| 20260503202235 | 56 | 324 | 1.0 | 2.0 | 0.00 | 0.00 | 0.00 | 73 | 1020.3 |
| 20260503201829 | 56 | 322 | 1.0 | 2.0 | 0.00 | 0.00 | 0.00 | 71 | 1020.2 |
| 20260503201816 | 56 | 324 | 1.0 | 2.0 | 0.00 | 0.00 | 0.00 | 72 | 1020.2 |
| 20260503200733 | 56 | 322 | 1.0 | 3.0 | 0.00 | 0.00 | 0.00 | 70 | 1020.2 |
| 20260503200236 | 56 | 322 | 2.0 | 3.0 | 0.00 | 0.00 | 0.00 | 69 | 1020.2 |
| 20260503200023 | 56 | 322 | 2.0 | 3.0 | 0.00 | 0.00 | 0.00 | 68 | 1020.2 |
| 20260503195231 | 56 | 322 | 2.0 | 3.0 | 0.00 | 0.00 | 0.00 | 68 | 1020.2 |
| 20260503194730 | 56 | 310 | 2.0 | 4.0 | 0.00 | 0.00 | 0.00 | 67 | 1020.2 |
| 20260503194228 | 56 | 342 | 2.0 | 4.0 | 0.00 | 0.00 | 0.00 | 66 | 1020.1 |
| 20260503194018 | 56 | 298 | 2.0 | 4.0 | 0.00 | 0.00 | 0.00 | 65 | 1020.1 |
| 20260503193226 | 56 | 293 | 2.0 | 4.0 | 0.00 | 0.00 | 0.00 | 66 | 1020.0 |
| 20260503192727 | 57 | 288 | 2.0 | 3.0 | 0.00 | 0.00 | 0.00 | 68 | 1020.0 |
| 20260503192225 | 57 | 337 | 2.0 | 3.0 | 0.00 | 0.00 | 0.00 | 67 | 1019.9 |
| 20260503192002 | 57 | 337 | 1.0 | 3.0 | 0.00 | 0.00 | 0.00 | 67 | 1019.9 |
| 20260503191220 | 57 | 337 | 1.0 | 3.0 | 0.00 | 0.00 | 0.00 | 66 | 1019.8 |
| 20260503190719 | 57 | 337 | 1.0 | 2.0 | 0.00 | 0.00 | 0.00 | 66 | 1019.8 |
| 20260503190217 | 57 | 332 | 1.0 | 3.0 | 0.00 | 0.00 | 0.00 | 65 | 1019.8 |
| 20260503185951 | 57 | 332 | 1.0 | 3.0 | 0.00 | 0.00 | 0.00 | 64 | 1019.7 |
| 20260503185217 | 57 | 332 | 2.0 | 3.0 | 0.00 | 0.00 | 0.00 | 63 | 1019.7 |
| 20260503184716 | 57 | 336 | 2.0 | 3.0 | 0.00 | 0.00 | 0.00 | 59 | 1019.8 |
| 20260503184500 | 57 | 336 | 2.0 | 3.0 | 0.00 | 0.00 | 0.00 | 55 | 1019.7 |
| 20260503183714 | 57 | 337 | 2.0 | 3.0 | 0.00 | 0.00 | 0.00 | 58 | 1019.7 |
| 20260503183215 | 57 | 337 | 2.0 | 3.0 | 0.00 | 0.00 | 0.00 | 59 | 1019.7 |
| 20260503182714 | 57 | 337 | 2.0 | 3.0 | 0.00 | 0.00 | 0.00 | 57 | 1019.7 |
| 20260503182213 | 57 | 310 | 1.0 | 3.0 | 0.00 | 0.00 | 0.00 | 57 | 1019.7 |
| 20260503181711 | 57 | 310 | 1.0 | 3.0 | 0.00 | 0.00 | 0.00 | 55 | 1019.7 |
| 20260503181209 | 57 | 292 | 1.0 | 2.0 | 0.00 | 0.00 | 0.00 | 57 | 1019.7 |
| 20260503180956 | 57 | 293 | 1.0 | 3.0 | 0.00 | 0.00 | 0.00 | 59 | 1019.7 |
| 20260503180206 | 58 | 299 | 1.0 | 3.0 | 0.00 | 0.00 | 0.00 | 63 | 1019.7 |
| 20260503175707 | 58 | 92 | 1.0 | 2.0 | 0.00 | 0.00 | 0.00 | 66 | 1019.7 |
| 20260503175205 | 58 | 92 | 1.0 | 2.0 | 0.00 | 0.00 | 0.00 | 63 | 1019.7 |
| 20260503174706 | 58 | 93 | 1.0 | 2.0 | 0.00 | 0.00 | 0.00 | 64 | 1019.7 |
| 20260503174449 | 58 | 95 | 1.0 | 2.0 | 0.00 | 0.00 | 0.00 | 67 | 1019.7 |
| 20260503173702 | 59 | 95 | 0.0 | 2.0 | 0.00 | 0.00 | 0.00 | 67 | 1019.8 |
| 20260503173205 | 59 | 95 | 0.0 | 2.0 | 0.00 | 0.00 | 0.00 | 66 | 1019.8 |
| 20260503172703 | 59 | 95 | 0.0 | 1.0 | 0.00 | 0.00 | 0.00 | 66 | 1019.8 |
| 20260503172210 | 59 | 95 | 0.0 | 1.0 | 0.00 | 0.00 | 0.00 | 66 | 1019.9 |
| 20260503171708 | 59 | 95 | 1.0 | 3.0 | 0.00 | 0.00 | 0.00 | 67 | 1019.9 |
| 20260503171205 | 59 | 95 | 1.0 | 4.0 | 0.00 | 0.00 | 0.00 | 67 | 1019.8 |
| 20260503170707 | 59 | 96 | 1.0 | 5.0 | 0.00 | 0.00 | 0.00 | 67 | 1019.9 |
| 20260503170207 | 59 | 112 | 1.0 | 5.0 | 0.00 | 0.00 | 0.00 | 66 | 1019.8 |
| 20260503160143 | 61 | 301 | 2.0 | 8.0 | 0.00 | 0.00 | 0.00 | 63 | 1019.7 |
| 20260503150634 | 64 | 266 | 1.0 | 2.0 | 0.00 | 0.00 | 0.00 | 65 | 1020.2 |
| 20260503150135 | 64 | 81 | 1.0 | 2.0 | 0.00 | 0.00 | 0.00 | 65 | 1020.2 |
| 20260503140135 | 63 | 181 | 2.0 | 4.0 | 0.00 | 0.00 | 0.00 | 61 | 1020.8 |
| 20260503131113 | 64 | 97 | 2.0 | 5.0 | 0.00 | 0.00 | 0.00 | 50 | 1021.7 |
| 20260503130615 | 64 | 160 | 2.0 | 7.0 | 0.00 | 0.00 | 0.00 | 55 | 1021.7 |
| 20260503130114 | 63 | 213 | 2.0 | 7.0 | 0.00 | 0.00 | 0.00 | 55 | 1021.7 |
| 20260503120105 | 64 | 152 | 3.0 | 10.0 | 0.00 | 0.00 | 0.00 | 63 | 1022.4 |
| 20260503110602 | 64 | 83 | 3.0 | 8.0 | 0.00 | 0.00 | 0.00 | 62 | 1022.2 |
| 20260503110116 | 63 | 181 | 3.0 | 8.0 | 0.00 | 0.00 | 0.00 | 65 | 1022.2 |
| 20260503100112 | 62 | 178 | 4.0 | 12.0 | 0.00 | 0.00 | 0.00 | 69 | 1022.3 |
| 20260503081546 | 64 | 114 | 3.0 | 7.0 | 0.00 | 0.00 | 0.00 | 54 | 1022.0 |
| 20260503081128 | 63 | 178 | 3.0 | 6.0 | 0.00 | 0.00 | 0.00 | 55 | 1022.0 |
| 20260503081110 | 64 | 67 | 2.0 | 4.0 | 0.00 | 0.00 | 0.00 | 56 | 1021.8 |
| 20260503072551 | 62 | 84 | 2.0 | 4.0 | 0.00 | 0.00 | 0.00 | 53 | 1021.8 |
| 20260503072046 | 61 | 126 | 2.0 | 4.0 | 0.00 | 0.00 | 0.00 | 51 | 1021.8 |
| 20260503071830 | 60 | 119 | 1.0 | 4.0 | 0.00 | 0.00 | 0.00 | 52 | 1021.8 |
| 20260503071047 | 60 | 129 | 2.0 | 3.0 | 0.00 | 0.00 | 0.00 | 53 | 1022.0 |
| 20260503070547 | 60 | 129 | 2.0 | 3.0 | 0.00 | 0.00 | 0.00 | 53 | 1022.0 |
| 20260503060312 | 60 | 85 | 2.0 | 4.0 | 0.00 | 0.00 | 0.00 | 48 | 1021.7 |
| 20260503055035 | 60 | 231 | 1.0 | 3.0 | 0.00 | 0.00 | 0.00 | 49 | 1021.7 |
| 20260503054536 | 60 | 231 | 1.0 | 3.0 | 0.00 | 0.00 | 0.00 | 48 | 1021.7 |
| 20260503054313 | 60 | 243 | 0.0 | 3.0 | 0.00 | 0.00 | 0.00 | 47 | 1021.6 |
| 20260503053528 | 61 | 271 | 1.0 | 4.0 | 0.00 | 0.00 | 0.00 | 51 | 1021.5 |
| 20260503053028 | 61 | 271 | 1.0 | 4.0 | 0.00 | 0.00 | 0.00 | 45 | 1021.5 |
| 20260503052817 | 61 | 266 | 1.0 | 4.0 | 0.00 | 0.00 | 0.00 | 44 | 1021.4 |
| 20260503052029 | 61 | 347 | 0.0 | 2.0 | 0.00 | 0.00 | 0.00 | 49 | 1021.3 |
| 20260503051521 | 60 | 347 | 0.0 | 1.0 | 0.00 | 0.00 | 0.00 | 52 | 1021.3 |
| 20260503051019 | 60 | 347 | 0.0 | 2.0 | 0.00 | 0.00 | 0.00 | 52 | 1021.3 |
| 20260503050524 | 59 | 347 | 1.0 | 2.0 | 0.00 | 0.00 | 0.00 | 53 | 1021.2 |
| 20260503050017 | 58 | 347 | 1.0 | 3.0 | 0.00 | 0.00 | 0.00 | 55 | 1021.1 |
| 20260503045526 | 58 | 347 | 1.0 | 3.0 | 0.00 | 0.00 | 0.00 | 53 | 1021.1 |
| 20260503045012 | 57 | 347 | 1.0 | 2.0 | 0.00 | 0.00 | 0.00 | 56 | 1021.2 |
| 20260503044513 | 57 | 347 | 1.0 | 2.0 | 0.00 | 0.00 | 0.00 | 52 | 1021.1 |
| 20260503044011 | 57 | 347 | 1.0 | 2.0 | 0.00 | 0.00 | 0.00 | 56 | 1021.2 |
| 20260503043748 | 56 | 347 | 2.0 | 2.0 | 0.00 | 0.00 | 0.00 | 55 | 1021.2 |
| 20260503043012 | 56 | 347 | 2.0 | 3.0 | 0.00 | 0.00 | 0.00 | 55 | 1021.2 |
| 20260503042518 | 56 | 347 | 1.0 | 3.0 | 0.00 | 0.00 | 0.00 | 53 | 1021.3 |
| 20260503042006 | 56 | 339 | 1.0 | 3.0 | 0.00 | 0.00 | 0.00 | 53 | 1021.3 |
| 20260503041508 | 56 | 339 | 2.0 | 3.0 | 0.00 | 0.00 | 0.00 | 54 | 1021.2 |
| 20260503041006 | 56 | 339 | 2.0 | 3.0 | 0.00 | 0.00 | 0.00 | 53 | 1021.3 |
| 20260503040507 | 56 | 339 | 2.0 | 3.0 | 0.00 | 0.00 | 0.00 | 55 | 1021.3 |
| 20260503040007 | 56 | 339 | 2.0 | 3.0 | 0.00 | 0.00 | 0.00 | 55 | 1021.3 |
| 20260503035746 | 56 | 339 | 2.0 | 3.0 | 0.00 | 0.00 | 0.00 | 55 | 1021.3 |
| 20260503035242 | 56 | 339 | 2.0 | 3.0 | 0.00 | 0.00 | 0.00 | 56 | 1021.4 |
| 20260503034444 | 56 | 339 | 2.0 | 3.0 | 0.00 | 0.00 | 0.00 | 56 | 1021.4 |
| 20260503033937 | 56 | 339 | 2.0 | 3.0 | 0.00 | 0.00 | 0.00 | 56 | 1021.4 |
| 20260503033441 | 56 | 339 | 2.0 | 3.0 | 0.00 | 0.00 | 0.00 | 54 | 1021.4 |
| 20260503032940 | 56 | 339 | 2.0 | 3.0 | 0.00 | 0.00 | 0.00 | 54 | 1021.4 |
| 20260503032439 | 56 | 339 | 1.0 | 3.0 | 0.00 | 0.00 | 0.00 | 54 | 1021.4 |
| 20260503031935 | 56 | 339 | 2.0 | 2.0 | 0.00 | 0.00 | 0.00 | 54 | 1021.4 |
| 20260503031437 | 56 | 339 | 2.0 | 2.0 | 0.00 | 0.00 | 0.00 | 55 | 1021.5 |
| 20260503030936 | 56 | 339 | 2.0 | 3.0 | 0.00 | 0.00 | 0.00 | 56 | 1021.5 |
| 20260503030435 | 56 | 339 | 1.0 | 3.0 | 0.00 | 0.00 | 0.00 | 54 | 1021.5 |
| 20260503025937 | 56 | 338 | 1.0 | 3.0 | 0.00 | 0.00 | 0.00 | 55 | 1021.6 |
| 20260503025722 | 56 | 338 | 1.0 | 3.0 | 0.00 | 0.00 | 0.00 | 53 | 1021.6 |
| 20260503024934 | 56 | 325 | 1.0 | 3.0 | 0.00 | 0.00 | 0.00 | 54 | 1021.6 |
| 20260503024434 | 56 | 325 | 2.0 | 3.0 | 0.00 | 0.00 | 0.00 | 55 | 1021.6 |
| 20260503023932 | 56 | 325 | 2.0 | 3.0 | 0.00 | 0.00 | 0.00 | 55 | 1021.7 |
| 20260503023434 | 56 | 325 | 2.0 | 3.0 | 0.00 | 0.00 | 0.00 | 55 | 1021.7 |
| 20260503022938 | 56 | 325 | 2.0 | 3.0 | 0.00 | 0.00 | 0.00 | 54 | 1021.7 |
| 20260503022434 | 56 | 330 | 2.0 | 3.0 | 0.00 | 0.00 | 0.00 | 54 | 1021.7 |
| 20260503021934 | 56 | 332 | 2.0 | 3.0 | 0.00 | 0.00 | 0.00 | 54 | 1021.7 |
| 20260503021718 | 56 | 337 | 2.0 | 3.0 | 0.00 | 0.00 | 0.00 | 55 | 1021.7 |
| 20260503020934 | 56 | 336 | 2.0 | 3.0 | 0.00 | 0.00 | 0.00 | 54 | 1021.7 |
| 20260503020721 | 56 | 336 | 2.0 | 3.0 | 0.00 | 0.00 | 0.00 | 55 | 1021.7 |
| 20260503015932 | 57 | 331 | 2.0 | 3.0 | 0.00 | 0.00 | 0.00 | 56 | 1021.6 |
| 20260503015434 | 57 | 330 | 2.0 | 3.0 | 0.00 | 0.00 | 0.00 | 56 | 1021.7 |
| 20260503014932 | 57 | 337 | 1.0 | 3.0 | 0.00 | 0.00 | 0.00 | 56 | 1021.7 |
| 20260503014434 | 57 | 337 | 2.0 | 3.0 | 0.00 | 0.00 | 0.00 | 56 | 1021.7 |
| 20260503013932 | 57 | 337 | 2.0 | 3.0 | 0.00 | 0.00 | 0.00 | 57 | 1021.7 |
| 20260503013432 | 57 | 354 | 2.0 | 3.0 | 0.00 | 0.00 | 0.00 | 57 | 1021.7 |
| 20260503012933 | 57 | 18 | 1.0 | 3.0 | 0.00 | 0.00 | 0.00 | 57 | 1021.8 |
| 20260503012714 | 57 | 18 | 1.0 | 2.0 | 0.00 | 0.00 | 0.00 | 56 | 1021.8 |
| 20260503011933 | 57 | 18 | 2.0 | 3.0 | 0.00 | 0.00 | 0.00 | 56 | 1021.8 |
| 20260503011437 | 58 | 18 | 2.0 | 3.0 | 0.00 | 0.00 | 0.00 | 56 | 1021.8 |
| 20260503010931 | 58 | 18 | 2.0 | 3.0 | 0.00 | 0.00 | 0.00 | 55 | 1021.8 |
| 20260503010432 | 58 | 298 | 2.0 | 4.0 | 0.00 | 0.00 | 0.00 | 53 | 1021.7 |
| 20260503005933 | 58 | 264 | 2.0 | 4.0 | 0.00 | 0.00 | 0.00 | 51 | 1021.8 |
| 20260503005433 | 58 | 319 | 2.0 | 3.0 | 0.00 | 0.00 | 0.00 | 52 | 1021.8 |
| 20260503004933 | 58 | 342 | 2.0 | 3.0 | 0.00 | 0.00 | 0.00 | 52 | 1021.8 |
| 20260503004432 | 58 | 335 | 2.0 | 3.0 | 0.00 | 0.00 | 0.00 | 53 | 1022.0 |
| 20260503003935 | 58 | 335 | 2.0 | 3.0 | 0.00 | 0.00 | 0.00 | 53 | 1022.0 |
| 20260503003713 | 58 | 335 | 2.0 | 3.0 | 0.00 | 0.00 | 0.00 | 53 | 1022.1 |
| 20260503002932 | 58 | 335 | 1.0 | 3.0 | 0.00 | 0.00 | 0.00 | 52 | 1022.1 |
| 20260503002432 | 58 | 354 | 1.0 | 2.0 | 0.00 | 0.00 | 0.00 | 52 | 1022.1 |
| 20260503001933 | 58 | 354 | 2.0 | 3.0 | 0.00 | 0.00 | 0.00 | 50 | 1022.2 |
| 20260503001434 | 58 | 314 | 2.0 | 3.0 | 0.00 | 0.00 | 0.00 | 51 | 1022.2 |
| 20260503001217 | 58 | 314 | 2.0 | 3.0 | 0.00 | 0.00 | 0.00 | 49 | 1022.2 |
| 20260503000434 | 58 | 314 | 1.0 | 3.0 | 0.00 | 0.00 | 0.00 | 49 | 1022.3 |
| 20260502235938 | 58 | 314 | 1.0 | 3.0 | 0.00 | 0.00 | 0.00 | 49 | 1022.2 |
| 20260502235437 | 59 | 314 | 2.0 | 3.0 | 0.00 | 0.00 | 0.00 | 52 | 1022.3 |
| 20260502235009 | 59 | 308 | 2.0 | 3.0 | 0.00 | 0.00 | 0.00 | 48 | 1022.3 |
| 20260502234952 | 59 | 308 | 2.0 | 3.0 | 0.00 | 0.00 | 0.00 | 50 | 1022.3 |
| 20260502233935 | 58 | 305 | 1.0 | 2.0 | 0.00 | 0.00 | 0.00 | 47 | 1022.4 |
| 20260502233717 | 58 | 305 | 1.0 | 3.0 | 0.00 | 0.00 | 0.00 | 47 | 1022.4 |
| 20260502232937 | 58 | 305 | 1.0 | 3.0 | 0.00 | 0.00 | 0.00 | 47 | 1022.4 |
| 20260502232435 | 58 | 305 | 1.0 | 3.0 | 0.00 | 0.00 | 0.00 | 49 | 1022.4 |
| 20260502231938 | 58 | 342 | 1.0 | 2.0 | 0.00 | 0.00 | 0.00 | 49 | 1022.5 |
| 20260502231434 | 58 | 340 | 1.0 | 2.0 | 0.00 | 0.00 | 0.00 | 50 | 1022.5 |
| 20260502230935 | 58 | 340 | 1.0 | 2.0 | 0.00 | 0.00 | 0.00 | 52 | 1022.5 |
| 20260502230428 | 58 | 340 | 1.0 | 2.0 | 0.00 | 0.00 | 0.00 | 53 | 1022.6 |
| 20260502225929 | 58 | 340 | 1.0 | 2.0 | 0.00 | 0.00 | 0.00 | 56 | 1022.6 |
| 20260502225426 | 58 | 340 | 1.0 | 2.0 | 0.00 | 0.00 | 0.00 | 56 | 1022.7 |
| 20260502224925 | 58 | 340 | 1.0 | 2.0 | 0.00 | 0.00 | 0.00 | 55 | 1022.8 |
| 20260502224714 | 58 | 340 | 1.0 | 3.0 | 0.00 | 0.00 | 0.00 | 56 | 1022.8 |
| 20260502223925 | 57 | 340 | 1.0 | 3.0 | 0.00 | 0.00 | 0.00 | 56 | 1022.8 |
| 20260502223423 | 57 | 340 | 1.0 | 2.0 | 0.00 | 0.00 | 0.00 | 58 | 1022.8 |
| 20260502222921 | 57 | 340 | 1.0 | 2.0 | 0.00 | 0.00 | 0.00 | 58 | 1022.9 |
| 20260502222419 | 58 | 340 | 1.0 | 3.0 | 0.00 | 0.00 | 0.00 | 58 | 1023.0 |
| 20260502221919 | 58 | 340 | 2.0 | 3.0 | 0.00 | 0.00 | 0.00 | 57 | 1023.1 |
| 20260502221708 | 58 | 307 | 2.0 | 3.0 | 0.00 | 0.00 | 0.00 | 57 | 1023.1 |
| 20260502220917 | 58 | 307 | 1.0 | 3.0 | 0.00 | 0.00 | 0.00 | 56 | 1023.1 |
| 20260502220421 | 58 | 4 | 1.0 | 3.0 | 0.00 | 0.00 | 0.00 | 57 | 1023.0 |
| 20260502215918 | 58 | 4 | 1.0 | 3.0 | 0.00 | 0.00 | 0.00 | 57 | 1023.1 |
| 20260502215704 | 58 | 4 | 1.0 | 3.0 | 0.00 | 0.00 | 0.00 | 57 | 1023.1 |
| 20260502214914 | 58 | 4 | 1.0 | 2.0 | 0.00 | 0.00 | 0.00 | 58 | 1023.1 |
| 20260502214414 | 58 | 4 | 1.0 | 3.0 | 0.00 | 0.00 | 0.00 | 58 | 1023.1 |